Weather observations for the past three days for
Gary Regional Airport
Imperial (Metric)
Date Time (cdt) Wind (mph) Vis. (mi.) Weather Sky Cond. Temperature (ºF) Relative Humidity Wind Chill (°F) Heat Index (°F) Pressure Precipitation (in)
Air Dwpt 6 hour altimeter (in) sea level (mb) 1 hr 3 hr 6 hr
Max. Min.
14 08:45 N 10 10.00 Fair CLR 73.4 62.6 69% 29.96 0.0
14 07:45 N 7 10.00 Fair CLR 71.6 66.2 83% 29.94 0.0
14 06:45 W 3 10.00 Fair CLR 68 68 100% 29.93 0.0
14 05:45 NW 3 10.00 Fair CLR 64.4 64.4 100% 29.93 0.0
14 04:45 W 3 10.00 Fair CLR 66.2 66.2 100% 29.93 0.0
14 04:15 SW 3 10.00 Fair CLR 68 68 100% 29.91 0.0
14 03:55 Vrbl 3 10.00 Fair CLR 68 68 100% 29.91 0.0
14 03:35 W 5 10.00 Fair CLR 68 68 100% 29.91 0.0
14 03:15 Calm 10.00 Fair CLR 68 68 100% 29.9 0.0
14 02:55 Vrbl 5 G 12 10.00 A Few Clouds FEW006 68 68 100% 29.9 0.0
14 02:35 Vrbl 6 G 14 10.00 Fair CLR 68 68 100% 29.89 0.0
14 02:15 SW 6 10.00 Fair CLR 68 68 100% 29.89 0.0
14 01:55 Vrbl 6 10.00 Partly Cloudy SCT050 69.8 69.8 100% 29.88 0.0
14 01:35 SW 5 10.00 Mostly Cloudy BKN050 69.8 69.8 100% 29.87 0.0
14 01:15 Vrbl 5 6.00 Fog/Mist FEW050 FEW060 68 68 100% 29.87 0.0
14 00:55 Calm 10.00 A Few Clouds FEW050 FEW055 68 68 100% 29.86 0.0
14 00:35 Calm 10.00 Mostly Cloudy SCT050 BKN055 69.8 69.8 100% 29.87 0.0
14 00:15 Calm 10.00 Overcast BKN050 OVC055 69.8 69.8 100% 29.87 0.0
13 23:35 Vrbl 3 G 12 10.00 Mostly Cloudy FEW012 SCT034 BKN050 73.4 73.4 100% 29.88 0.0
13 23:15 S 9 G 16 10.00 Mostly Cloudy FEW012 FEW017 BKN035 73.4 73.4 100% 29.88 0.0
13 22:55 Vrbl 6 10.00 A Few Clouds FEW120 71.6 71.6 100% 29.89 0.0
13 22:35 Calm 10.00 Fair CLR 71.6 71.6 100% 29.86 0.0
13 22:10 Calm 10.00 Fair CLR 73.4 73.4 100% 29.86 0.0
13 21:45 S 5 10.00 Fair CLR 73.4 73.4 100% 29.86 0.0
13 20:45 SE 8 10.00 Fair CLR 75.2 75.2 100% 73 29.82 0.0
13 19:45 SE 8 G 18 10.00 Fair CLR 78.8 78.8 100% 83 29.82 0.0
13 18:45 SE 14 10.00 Fair CLR 80.6 78.8 94% 88 29.82 0.0
13 17:45 Calm 10.00 Mostly Cloudy SCT042 SCT050 BKN075 82.4 77 84% 91 29.82 0.0
13 16:45 SW 9 10.00 A Few Clouds FEW120 84.2 78.8 84% 96 29.82 0.0
13 15:45 W 12 G 24 10.00 Thunderstorm in Vicinity BKN050 80.6 80.6 100% 89 29.83 0.0
13 14:45 W 20 G 32 10.00 Overcast OVC055 87.8 69.8 55% 93 29.83 0.0
13 13:45 SW 14 G 32 10.00 A Few Clouds FEW055 FEW100 89.6 69.8 52% 95 29.83 0.0
13 12:45 W 15 G 25 10.00 Fair CLR 87.8 68 52% 91 29.83 0.0
13 11:45 W 17 10.00 Partly Cloudy SCT070 86 68 55% 89 29.84 0.0
13 10:45 SW 13 10.00 Fair CLR 86 69.8 59% 91 29.84 0.0
13 09:45 SW 13 10.00 Fair CLR 78.8 69.8 74% 81 29.82 0.0
13 08:45 SW 5 10.00 A Few Clouds FEW060 FEW085 77 69.8 79% 79 29.89 0.0
13 07:45 SW 8 10.00 Fair CLR 77 68 74% 79 29.9 0.0
13 06:45 SW 5 10.00 Fair CLR 73.4 68 83% 29.88 0.0
13 05:45 SW 8 10.00 A Few Clouds FEW100 71.6 68 88% 29.87 0.0
13 04:45 S 5 10.00 A Few Clouds FEW080 71.6 68 88% 29.85 0.0
13 04:15 Vrbl 5 10.00 Fair CLR 71.6 68 88% 29.86 0.0
13 03:55 Calm 10.00 Fair CLR 71.6 68 88% 29.86 0.0
13 03:35 Vrbl 5 10.00 Fair CLR 71.6 68 88% 29.86 0.0
13 03:15 Calm 10.00 A Few Clouds FEW060 71.6 66.2 83% 29.85 0.0
13 02:55 Vrbl 5 10.00 A Few Clouds FEW060 FEW070 73.4 66.2 78% 29.85 0.0
13 02:35 Vrbl 5 10.00 A Few Clouds FEW060 FEW070 73.4 64.4 74% 29.85 0.0
13 02:15 Calm 10.00 Fair CLR 73.4 64.4 74% 29.85 0.0
13 01:55 Vrbl 3 10.00 Fair CLR 75.2 64.4 69% 77 29.84 0.0
13 01:35 Calm 5.00 Fair with Haze CLR 75.2 62.6 65% 77 29.84 0.0
13 01:15 Calm 10.00 Fair CLR 73.4 62.6 69% 29.85 0.0
13 00:55 Calm 10.00 Fair CLR 75.2 62.6 65% 77 29.85 0.0
13 00:35 Vrbl 5 10.00 Mostly Cloudy BKN085 77 60.8 57% 79 29.85 0.0
13 00:15 Calm 10.00 Overcast OVC090 77 60.8 57% 79 29.85 0.0
12 23:55 Calm 10.00 Overcast OVC085 77 60.8 57% 79 29.86 0.0
12 23:35 SW 5 10.00 Overcast OVC090 75.2 60.8 61% 77 29.86 0.0
12 23:15 S 3 9.00 Overcast OVC090 71.6 64.4 78% 29.85 0.0
12 22:55 Vrbl 3 10.00 Mostly Cloudy BKN090 73.4 62.6 69% 29.84 0.0
12 22:35 Vrbl 5 10.00 Mostly Cloudy BKN085 75.2 62.6 65% 77 29.84 0.0
12 22:15 Vrbl 5 10.00 Mostly Cloudy BKN085 71.6 68 88% 29.84 0.0
12 21:45 S 5 10.00 A Few Clouds FEW080 69.8 69.8 100% 29.82 0.0
12 20:45 Calm 10.00 Fair CLR 71.6 71.6 100% 29.83 0.0
12 19:45 Calm 10.00 Fair CLR 78.8 71.6 79% 82 29.84 0.0
12 18:45 W 6 G 15 10.00 Fair CLR 86 59 40% 85 29.85 0.0
12 17:45 W 6 G 14 10.00 Fair CLR 87.8 57.2 35% 87 29.86 0.0
12 16:45 W 10 G 23 10.00 Fair CLR 89.6 57.2 33% 88 29.87 0.0
12 15:45 W 12 G 23 10.00 Fair CLR 89.6 53.6 29% 87 29.88 0.0
12 14:45 W 8 G 20 10.00 Fair CLR 89.6 51.8 27% 87 29.9 0.0
12 13:45 NW 5 G 18 10.00 Fair CLR 87.8 60.8 40% 88 29.9 0.0
12 12:45 W 5 G 15 10.00 Fair CLR 86 60.8 43% 86 29.91 0.0
12 11:45 S 8 10.00 Fair CLR 84.2 64.4 51% 86 29.92 0.0
12 10:45 SW 12 G 15 10.00 Fair CLR 80.6 62.6 54% 82 29.93 0.0
12 09:45 SW 12 G 14 10.00 Fair CLR 77 59 54% 79 29.95 0.0
12 08:45 SW 12 G 15 10.00 Fair CLR 75.2 55.4 50% 78 29.93 0.0
12 07:45 SW 12 10.00 Fair CLR 71.6 53.6 53% 29.94 0.0
12 06:45 Calm 10.00 Fair CLR 68 50 53% 29.93 0.0
12 05:45 Calm 10.00 Partly Cloudy SCT110 66.2 51.8 60% 29.93 0.0
12 04:45 S 3 G 12 10.00 A Few Clouds FEW100 66.2 50 56% 29.93 0.0
12 04:15 Vrbl 5 10.00 Partly Cloudy FEW075 SCT090 64.4 50 60% 29.93 0.0
12 03:55 Vrbl 5 10.00 Partly Cloudy SCT090 64.4 50 60% 29.93 0.0
12 03:35 Vrbl 5 4.00 Fair with Haze CLR 64.4 50 60% 29.92 0.0
12 03:15 Calm 10.00 Fair CLR 64.4 50 60% 29.92 0.0
12 02:55 Vrbl 5 3.00 Fair with Haze CLR 64.4 50 60% 29.92 0.0
12 02:35 Calm 10.00 Fair CLR 64.4 50 60% 29.92 0.0
12 02:15 Calm 10.00 A Few Clouds FEW080 64.4 51.8 64% 29.92 0.0
12 01:55 Vrbl 5 10.00 Partly Cloudy SCT080 SCT110 62.6 51.8 68% 29.92 0.0
12 01:35 Calm 10.00 A Few Clouds FEW080 FEW110 64.4 51.8 64% 29.92 0.0
12 01:15 Vrbl 3 10.00 Fair CLR 62.6 53.6 73% 29.92 0.0
12 00:55 Calm 10.00 Fair CLR 64.4 55.4 73% 29.92 0.0
12 00:35 Vrbl 3 10.00 Partly Cloudy SCT070 SCT085 62.6 55.4 77% 29.92 0.0
12 00:15 Calm 10.00 Overcast BKN070 OVC095 60.8 60.8 100% 29.93 0.0
11 23:55 Calm 10.00 Mostly Cloudy FEW047 SCT055 BKN065 60.8 60.8 100% 29.93 0.0
11 23:35 S 5 10.00 Overcast SCT046 BKN050 OVC085 64.4 60.8 88% 29.93 0.0
11 23:15 S 3 10.00 Overcast SCT045 SCT075 OVC085 68 57.2 69% 29.93 0.0
11 22:55 Calm 10.00 Overcast OVC080 64.4 64.4 100% 29.93 0.0
11 22:35 Calm 10.00 Overcast OVC080 66.2 60.8 83% 29.93 0.0
11 22:15 SE 5 10.00 Overcast FEW060 OVC080 68 57.2 69% 29.93 0.0
11 21:45 SE 5 10.00 Overcast OVC008 69.8 57.2 64% 29.93 0.0
11 20:45 NE 3 10.00 Mostly Cloudy BKN095 69.8 59 69% 29.92 0.0
11 19:45 SE 3 10.00 Mostly Cloudy BKN110 69.8 64.4 83% 29.92 0.0
11 18:45 E 3 10.00 Overcast OVC110 69.8 64.4 83% 29.92 0.0
11 17:45 NE 5 10.00 Fair CLR 71.6 51.8 50% 29.93 0.0
11 16:45 NE 9 10.00 Fair CLR 73.4 51.8 47% 29.95 0.0
11 15:45 E 7 10.00 Fair CLR 75.2 51.8 44% 78 29.96 0.0
11 14:45 NE 8 10.00 Fair CLR 73.4 53.6 50% 29.97 0.0
11 13:45 N 7 10.00 Fair CLR 73.4 55.4 53% 29.99 0.0
11 12:45 NE 8 10.00 Fair CLR 71.6 55.4 57% 29.99 0.0
11 10:45 Calm 10.00 Fair CLR 69.8 46.4 43% 30.02 0.0
11 09:45 Calm 10.00 Fair CLR 66.2 46.4 49% 30.03 0.0
Date Time (cdt) Wind (mph) Vis. (mi.) Weather Sky Cond. Air Dwpt Max. Min. Relative Humidity Wind Chill (°F) Heat Index (°F) altimeter (in) sea level (mb) 1 hr 3 hr 6 hr
6 hour
Temperature (ºF) Pressure Precipitation (in)